User: anonymous   Login
Location: Chapel Hill
(35.9134°N, 79.0560°W)
Time: 05:03:21
(UTC-04:00)
Language:

ACS3 Solar Sail - Orbit

View from above orbital plane
View from above orbital plane
View from above satellite
View from above satellite

Ground track
Ground track

The orbit data is extracted from the following two-line orbital elements,

1 59588U 24077B   24205.60615640  .00000093  00000-0  14362-3 0  9997
2 59588  97.4044 265.3249 0019986 359.0989   1.0123 13.67693218 12389
Epoch (UTC): 23 July 2024 14:32:51
Eccentricity: 0.0019986
inclination: 97.4044°
perigee height: 993 km
apogee height: 1022 km
right ascension of ascending node: 265.3249°
argument of perigee: 359.0989°
revolutions per day: 13.67693218
mean anomaly at epoch: 1.0123°
orbit number at epoch: 1238

The dashed part of the orbit path shows where the satellite is in the earth's shadow,  

DLR